Tracking 30995 objects as of 7-Jul-2025
HD Live streaming from Space Station
objects crossing your sky now

STARLINK-32435

Track STARLINK-32435 now!
10-day predictions
STARLINK-32435 is classified as:


NORAD ID: 61259
Int'l Code: 2024-175S
Perigee: 481.6 km
Apogee: 483.2 km
Inclination: 53.2 °
Period: 94.1 minutes
Semi major axis: 6853 km
RCS: Unknown
Launch date: September 25, 2024
Source: United States (US)
Launch site: AIR FORCE WESTERN TEST RANGE (AFWTR)
Your satellite tracking list
SL-24 PLAT
Track 1 satellite(s)




NASA's NSSDC Master Catalog

Two Line Element Set (TLE):
1 61259U 24175S   25187.46710918 -.00000085  00000-0  92510-5 0  9997
2 61259  53.1598 257.8757 0001176  78.5264 281.5869 15.30192198 43751
Source of the keplerian elements: AFSPC